Location: Cabo di Oristano
(39.8500°N, 8.4333°E)
Time: 16:18:10
(UTC+00:00)

Cosmos 1833 - Pass Details

Date: 31 January 2023
Orbit: 830 x 868 km, 70.9° (Epoch: 31 March)

Event Time Altitude Azimuth Distance (km) Brightness Sun altitude
Exits shadow 04:30:44 37° 212° (SSW) 1,278 4.9 -24.1°
Maximum altitude 04:33:03 79° 293° (WNW) 857 4.0 -23.7°
Drops below altitude 10° 04:38:40 10° 21° (NNE) 2,449 6.8 -22.6°
Sets 04:41:07 0° 23° (NNE) 3,384 7.6 -22.2°
